Weather in Viljandi

Estonia     58˚21′37″N   25˚35′08″E
temp.,
°C
wind,
m/s
gust,
m/s
humid.,
%
clouds,
%
prec.,
mm/h
press.,
hPa
HPBL,
m
2 december, wed
wed223:00−1˚ssw3790100 0.0 1030410
02:00−2˚ssw279492 0.0 1031249
05:00−3˚s379523 0.0 1031229
08:00−4˚s279411 0.0 1031223
11:00−3˚s368312 0.0 1031301
14:00−2˚sse368023 0.0 1030419
17:00−4˚sse38930 0.0 1029298
20:00−3˚sse369119 0.0 1028422
3 december, thu
thu323:00−3˚sse3684100 0.0 1027569
02:00−3˚sse378598 0.1 1025540
05:00−2˚sse368499 0.0 1023525
08:00−2˚se368699 0.1 1022619
11:00−3˚sse467899 0.1 1021743
14:00−3˚sse488399 0.1 1020638
17:00−2˚sse5982100 0.0 1019817
20:00−2˚sse4986100 0.1 1019814
4 december, fri
fri423:00−2˚sse5108499 0.1 1018794
02:00−1˚se5118299 0.1 1018762
05:00sse51284100 0.0 1016822
08:00sse61389100 0.2 1016771
11:00+2˚sse61481100 0.4 1016775
14:00+2˚sse61383100 0.4 1016796
17:00+3˚sse61484100 0.0 1015827
20:00+3˚sse51483100 0.0 1015849
5 december, sat
sat523:00+3˚sse51384100 0.0 1016857
02:00+3˚sse51385100 0.0 1017901
05:00+4˚sse51486100 0.0 1016805
08:00+4˚sse6158794 0.0 1018775
11:00+4˚sse5138593 0.0 1019859
14:00+4˚sse5128597 0.0 1020778
17:00+4˚sse5148883 0.0 1020722
20:00+3˚sse4129172 0.0 1021673
6 december, sun
sun623:00+4˚sse4128691 0.0 1022721
02:00+4˚sse4128695 0.0 1023708
05:00+4˚sse51284100 0.0 1023730
08:00+4˚sse5128298 0.0 1023820
11:00+4˚sse51180100 0.0 1025802
14:00+3˚se4980100 0.0 1025889
17:00+1˚se4108489 0.0 1025688
20:00−1˚se4118376 0.0 1026602